Location: Azul
(36.7830°S, 59.8500°W)
Time: 01:44:08
(UTC-03:00)

UWE-3 - Pass Details

Date: 27 October 2021
Orbit: 584 x 681 km, 97.7° (Epoch: 04 December)

Event Time Altitude Azimuth Distance (km) Brightness Sun altitude
Exits shadow 03:27:24 11° 50° (NE) 1,934 ? -27.1°
Maximum altitude 03:31:01 30° 110° (ESE) 1,159 ? -26.6°
Drops below altitude 10° 03:34:55 10° 170° (S) 2,072 ? -26.0°
Sets 03:37:24 0° 180° (S) 3,008 ? -25.6°
